Location: Cicognara
(44.9500°N, 10.4667°E)
Time: 14:54:33
(UTC+00:00)

Terra - Pass Details

Date: 20 June 2021
Orbit: 701 x 703 km, 98.2° (Epoch: 03 August)

Event Time Altitude Azimuth Distance (km) Brightness Sun altitude
Exits shadow 20:41:02 18° 138° (SE) 1,678 3.1 -12.6°
Maximum altitude 20:44:18 48° 71° (ENE) 919 2.3 -13.0°
Drops below altitude 10° 20:48:53 10° 357° (N) 2,182 5.3 -13.4°
Sets 20:51:12 0° 352° (N) 3,105 6.3 -13.7°
